Terminal Aerodrome Forecast
Issued by NWS

Home | Current Version | Previous Version | Text Only | Print | Product List | Glossary On
Versions: 1 2 3 4 5 6 7 8 9 10 11 12 13 14 15 16 17 18
000
FTUS45 KRIW 170500
TAFCPR
TAF
KCPR 170539Z 1706/1806 08009KT P6SM SCT008 SCT090
      TEMPO 1706/1708 BKN008
     FM171000 VRB05KT P6SM SCT090
     FM171400 21009KT P6SM FEW100 SCT200
     FM171900 24014G22KT P6SM SCT120 BKN250
     FM180100 22010KT P6SM FEW120 SCT250=

USA.gov is the U.S. government's official web portal to all federal, state and local government web resources and services.